METEOR 2-8 DEB

Satellite information

Favourite Embed

Satellite Type and Status

DEBRISIN ORBIT

Key statistics

Satellite METEOR 2-8 DEB at a glance.

Uptime

15970

Days in orbit

Revolutions

≈ 14.2

Per day

Orbit

LEO

Low Earth Orbit

Inclination

82.5

Latest

Satellite identification and parameters

Extended collection of information and parameters for METEOR 2-8 DEB.

Object identification

Identified? True

Debris? True

Object name: METEOR 2-8 DEB

International designator: 1982-025W

Object number (NORAD): 36336

Object ID (CCSDS): 36336

Country: COMMONWEALTH OF INDEPENDENT STATES (CIS)

Current information (Y/N): Y

RCS size: SMALL

Orbital parameters

Period: 101.484 minutes

Inclination: 82.5356 deg

SMA: 7207.062 km

Apoapsis: 832.301 km

Periapsis: 825.553 km

RAAN: 55.5707 deg

Eccentricy: 0.00046811

Argument of periapsis: 11.1585 deg

Mean anomaly: 348.9697 deg

Mean motion: 14.18944385 rev/day

Mean motion (dot): 0.00005107 rev/day2

B* drag term: 0.0024428785 1/REarth

Two-line elements (TLE)

Creation date: Dec. 6, 2025, 5:59 p.m.

Reference frame: TEME

Reference center: EARTH

Epoch: Dec. 6, 2025, 11:04 a.m. UTC

TLE line 0: 0 METEOR 2-8 DEB

TLE line 1: 1 36336U 82025W 25340.46128014 .00005107 00000-0 24429-2 0 9994

TLE line 2: 2 36336 82.5356 55.5707 0004681 11.1585 348.9697 14.18944385238625

Live tracking on map

Real-time ground track for satellite METEOR 2-8 DEB.

In-orbit conjunctions

A list of the most updated potential collisions computed for object METEOR 2-8 DEB.

Target Orbit TCA Probability of collision Miss distance Type
SL-16 R/B LEO 2025-08-22 02:54:34 0.00021268 84.0 (m) ROCKET BODY
FENGYUN 1C DEB SSO 2024-11-11 14:24:25 0.0009355058 166.0 (m) DEBRIS

Associated space launch

Second generation soviet meteorological satellite

METEOR 2-8 DEB was lifted into orbit during the mission ‘Tsiklon-3 | Meteor-2 8’, on board a Tsiklon-3 space rocket.

The launch took place on March 25, 1982, 9:50 a.m. from 32/1.

For more information about the launch, click the button.

Launch to space Tsiklon-3 | Meteor-2 8
Tsiklon-3 | Meteor-2 8

Agency: N/A

Status: Launch Successful

Launch date: March 25, 1982, 9:50 a.m. UTC

Rocket: Tsiklon-3

Launch pad: 32/1

Location: Plesetsk Cosmodrome, Russian Federation

...

Latest news about this satellite

There are no fresh news available about this satellite. Check back as we update our databases every day.


Newsletter sign-up

Weekly statistics, charts and insights to help you stay on top of the space industry.